Regional Weather Roundup
Issued by NWS Charleston, WV

Home | Current Version | Previous Version | Graphics & Text | Print | Product List | Glossary On
Versions: 1 2 3 4 5 6 7 8 9 10 11 12 13 14 15 16 17 18 19 20 21 22 23 24 25 26 27 28 29 30 31 32 33 34 35 36 37 38 39 40 41 42 43 44 45 46 47 48 49 50
869
ASUS41 KRLX 050610
RWRRLX
West Virginia Regional Weather Roundup
National Weather Service Charleston WV
200 AM EDT THU MAY 05 2016

Note: "fair" indicates few or no clouds below 12,000 feet with no
significant weather and/or obstructions to visibility.

WVZ003-050700-
Northern Panhandle of West Virginia

CITY           SKY/WX    TMP DP  RH WIND       PRES   REMARKS
WHEELING       LGT RAIN  49  47  93 SE3       29.68S FOG
$$

WVZ009-050700-
Northwest West Virginia

CITY           SKY/WX    TMP DP  RH WIND       PRES   REMARKS
PARKERSBURG      N/A     49  47  93 NW3       29.71F
$$

WVZ006-050700-
Western West Virginia

CITY           SKY/WX    TMP DP  RH WIND       PRES   REMARKS
HUNTINGTON       N/A     47  44  90 NW3       29.73S
$$

WVZ015-050700-
West Central West Virginia

CITY           SKY/WX    TMP DP  RH WIND       PRES   REMARKS
CHARLESTON     LGT RAIN  48  45  89 W5        29.70S FOG
$$

WVZ022-031-050700-
North Central West Virginia

CITY           SKY/WX    TMP DP  RH WIND       PRES   REMARKS
CLARKSBURG     LGT RAIN  48  47  96 CALM      29.68F
MORGANTOWN     CLOUDY    50  45  83 E3        29.69F
$$

WVZ025-035-042-045-050700-
Southern West Virginia

CITY           SKY/WX    TMP DP  RH WIND       PRES   REMARKS
BECKLEY        CLOUDY    45  42  89 SW3       29.68F
LOGAN          NOT AVBL
BLUEFIELD      LGT RAIN  43  41  93 W6        29.69S
LEWISBURG      LGT RAIN  47  44  89 CALM      29.67F
$$

WVZ047-050700-
Northern Mountains of West Virginia

CITY           SKY/WX    TMP DP  RH WIND       PRES   REMARKS
ELKINS         CLOUDY    47  43  86 CALM      29.68F
$$

WVZ052-050700-
Eastern Panhandle of West Virginia

CITY           SKY/WX    TMP DP  RH WIND       PRES   REMARKS
MARTINSBURG    CLOUDY    52  50  93 E7        29.68S FOG
PETERSBURG     CLOUDY    54  49  84 CALM      29.67F
$$




USA.gov is the U.S. government's official web portal to all federal, state and local government web resources and services.